Location: Thompson
(55.7500°N, 97.8670°W)
Time: 13:04:14
(UTC-06:00)

Amateur Radio Satellites - All Passes

Search period start: 26 February 2017 12:34
Search period end: 27 February 2017 12:34
Location: Thompson, 55.7500°N, 97.8670°W

Satellite Date Start Highest point End Downlink Frequencies (MHz)
Time Altitude Azimuth
NANOSAT C BR1 26 Feb 12:36:41 12:39:39 18° 271° (W) 12:42:40 145.865
ITAMSAT 1 26 Feb 12:38:15 12:41:36 17° 47° (NE) 12:44:57 435.822/435.867
POLYITAN 1 26 Feb 12:38:35 12:41:23 17° 272° (W) 12:44:13 437.675
QB50P2 26 Feb 12:41:59 12:44:29 15° 273° (W) 12:47:01 145.880/145.840
YUBILEINY 26 Feb 12:51:34 12:59:35 38° 302° (WNW) 13:07:38 435.215
AO-7 26 Feb 12:51:44 12:59:03 36° 43° (NE) 13:06:21 .
Tancredo 1 26 Feb 12:52:26 12:55:13 26° 200° (SSW) 12:57:59 437.200
Gurwin Techsat 1B 26 Feb 12:53:49 12:59:04 63° 68° (ENE) 13:04:21 435.225
BEESAT 3 26 Feb 12:54:00 12:57:49 40° 29° (NNE) 13:01:38 437.485
BUGSAT 1 26 Feb 12:59:46 13:03:13 26° 267° (W) 13:06:46 437.445
LO-87 26 Feb 13:11:40 13:14:10 18° 301° (WNW) 13:16:40 145.935 - 145.965
50 SAT 26 Feb 13:34:20 13:37:48 66° 288° (WNW) 13:41:14 437.505
BEESAT 2 26 Feb 13:34:54 13:38:47 42° 30° (NNE) 13:42:40 435.950
ESTCUBE 1 26 Feb 13:35:25 13:39:16 28° 300° (WNW) 13:43:06 437.505/2401.250
Oscar 19 26 Feb 13:39:19 13:44:10 41° 263° (W) 13:49:03 437.125/150
DX 1 26 Feb 13:42:23 13:46:47 82° 106° (ESE) 13:51:09 434.975-435.025
UKube-1 26 Feb 13:52:02 13:56:23 77° 105° (ESE) 14:00:42 .
SPROUT 26 Feb 13:53:56 13:58:05 47° 293° (WNW) 14:02:14 437.525
VELOX 1 26 Feb 13:55:08 13:59:19 42° 295° (WNW) 14:03:29 145.980
ISS 26 Feb 14:06:42 14:08:18 13° 214° (SW) 14:09:55 437.550
AO-85 26 Feb 14:10:24 14:11:09 10° 248° (WSW) 14:11:54 145.980
ITAMSAT 1 26 Feb 14:15:03 14:20:13 67° 68° (ENE) 14:25:27 435.822/435.867
HO-68 26 Feb 14:19:12 14:19:23 10° 5° (N) 14:19:35 435.675
ITUPSAT 1 26 Feb 14:24:08 14:27:37 19° 89° (E) 14:31:03 437.325
BEESAT 26 Feb 14:29:44 14:33:26 22° 90° (E) 14:37:06 436.000
BEESAT 3 26 Feb 14:31:39 14:35:35 52° 230° (SW) 14:39:29 437.485
Gurwin Techsat 1B 26 Feb 14:34:55 14:39:27 28° 268° (W) 14:44:00 435.225
MOZHAYETS 4 26 Feb 14:40:39 14:42:27 12° 83° (E) 14:44:15
AO-7 26 Feb 14:42:43 14:51:07 89° 247° (WSW) 14:59:32 .
YUBILEINY 26 Feb 14:55:09 14:59:46 15° 332° (NNW) 15:04:24 435.215
50 SAT 26 Feb 15:09:42 15:10:15 10° 308° (NW) 15:10:48 437.505
BEESAT 2 26 Feb 15:12:44 15:16:41 48° 231° (SW) 15:20:35 435.950
DX 1 26 Feb 15:19:24 15:22:29 19° 306° (NW) 15:25:34 434.975-435.025
UKube-1 26 Feb 15:28:49 15:31:58 20° 305° (NW) 15:35:07 .
SPROUT 26 Feb 15:32:12 15:33:03 10° 314° (NW) 15:33:55 437.525
CUTE-I 26 Feb 15:35:03 15:38:14 16° 45° (NE) 15:41:27 437.470
XW-2C 26 Feb 15:47:49 15:48:48 11° 51° (NE) 15:49:48 145.795 - 145.815
NUDT-PHONESAT 26 Feb 15:55:16 15:55:55 10° 50° (NE) 15:56:33 437.300
ITAMSAT 1 26 Feb 15:55:50 16:00:09 26° 269° (W) 16:04:31 435.822/435.867
HO-68 26 Feb 16:00:05 16:04:24 17° 31° (NNE) 16:08:42 435.675
ITUPSAT 1 26 Feb 16:01:12 16:06:03 80° 289° (WNW) 16:10:50 437.325
LilacSat-2 26 Feb 16:04:36 16:06:53 15° 55° (NE) 16:09:10 437.200
BEESAT 26 Feb 16:06:55 16:11:44 71° 290° (WNW) 16:16:29 436.000
PCSat 26 Feb 16:10:19 16:14:58 30° 115° (ESE) 16:19:40 145.827
MOZHAYETS 4 26 Feb 16:15:54 16:20:32 69° 103° (ESE) 16:25:07
RS-15 26 Feb 16:30:50 16:40:31 30° 103° (ESE) 16:50:22 29.354- 29.394
KKS-1 26 Feb 16:37:06 16:41:12 34° 96° (E) 16:45:18 437.445
AO-7 26 Feb 16:38:05 16:45:01 28° 270° (W) 16:52:00 .
KAITUO 1B 26 Feb 16:52:37 16:55:57 29° 64° (ENE) 16:59:18 145.475/437.950
DOVE 4 26 Feb 16:58:46 17:02:44 44° 66° (ENE) 17:06:49 437.250
XW-2F 26 Feb 16:59:24 17:02:59 38° 66° (ENE) 17:06:35 145.980 - 146.000
YUBILEINY 26 Feb 17:00:00 17:01:54 11° 7° (N) 17:03:48 435.215
CUTE 1.7 + AOD 2 26 Feb 17:01:51 17:02:59 11° 48° (NE) 17:04:08 437.475
NO-84 26 Feb 17:02:41 17:04:16 13° 134° (SE) 17:05:55 435.350 FM
XW-2D 26 Feb 17:04:47 17:08:28 44° 68° (ENE) 17:12:11 145.860 - 145.880
STARS 26 Feb 17:07:19 17:11:20 32° 96° (E) 17:15:21 437.465
M-CUBED/EXP-1 PRIME 26 Feb 17:08:25 17:10:03 12° 95° (E) 17:11:43 437.505
XW-2B 26 Feb 17:09:50 17:13:33 48° 69° (ENE) 17:17:18 145.730 - 145.750
CUTE-I 26 Feb 17:12:05 17:17:20 59° 67° (ENE) 17:22:38 437.470
XW-2C 26 Feb 17:18:26 17:22:15 59° 70° (ENE) 17:26:04 145.795 - 145.815
CUBESAT XI-V 26 Feb 17:18:55 17:23:27 54° 100° (E) 17:27:57 437.345
NUDT-PHONESAT 26 Feb 17:25:22 17:29:04 57° 71° (ENE) 17:32:49 437.300
CUBEBUG 2 26 Feb 17:33:46 17:35:47 13° 47° (NE) 17:37:49 437.445
LilacSat-2 26 Feb 17:36:43 17:40:37 90° 122° (ESE) 17:44:33 437.200
ITUPSAT 1 26 Feb 17:39:58 17:43:12 18° 310° (NW) 17:46:26 437.325
HO-68 26 Feb 17:43:50 17:50:30 44° 55° (NE) 17:57:12 435.675
BEESAT 26 Feb 17:45:46 17:48:45 17° 311° (NW) 17:51:45 436.000
PCSat 26 Feb 17:52:35 17:58:01 73° 316° (NW) 18:03:29 145.827
MOZHAYETS 4 26 Feb 17:53:39 17:57:19 24° 304° (WNW) 18:00:57
SEEDS 26 Feb 17:54:09 17:57:10 19° 56° (ENE) 18:00:11 437.485
UWE-3 26 Feb 18:07:16 18:09:59 16° 51° (NE) 18:12:45 435.000/436.395/437.385
KKS-1 26 Feb 18:13:39 18:17:51 41° 296° (WNW) 18:22:03 437.445
XW-2A 26 Feb 18:16:00 18:19:17 43° 69° (ENE) 18:22:35 145.665 - 145.685
STRAND 1 26 Feb 18:20:05 18:21:24 11° 80° (E) 18:22:44 437.568
ZACube-1 26 Feb 18:25:15 18:27:47 15° 50° (NE) 18:30:20 437.345
KAITUO 1B 26 Feb 18:26:22 18:29:55 36° 263° (W) 18:33:31 145.475/437.950
CUTE 1.7 + AOD 2 26 Feb 18:33:47 18:37:56 51° 68° (ENE) 18:42:06 437.475
XW-2F 26 Feb 18:33:53 18:37:14 28° 266° (W) 18:40:37 145.980 - 146.000
DOVE 4 26 Feb 18:37:06 18:40:40 27° 267° (W) 18:44:20 437.250
NO-84 26 Feb 18:37:51 18:41:08 44° 155° (SSE) 18:44:45 435.350 FM
RS-15 26 Feb 18:39:05 18:51:09 76° 129° (SE) 19:03:31 29.354- 29.394
XW-2D 26 Feb 18:39:41 18:42:52 24° 267° (W) 18:46:04 145.860 - 145.880
M-CUBED/EXP-1 PRIME 26 Feb 18:41:20 18:45:01 85° 111° (ESE) 18:49:00 437.505
STARS 26 Feb 18:43:37 18:47:48 42° 296° (WNW) 18:51:59 437.465
XW-2B 26 Feb 18:44:55 18:48:00 22° 268° (W) 18:51:06 145.730 - 145.750
CUTE-I 26 Feb 18:53:05 18:57:45 30° 267° (W) 19:02:27 437.470
XW-2C 26 Feb 18:54:01 18:56:48 19° 270° (W) 18:59:37 145.795 - 145.815
CUBESAT XI-V 26 Feb 18:56:42 19:00:37 28° 301° (WNW) 19:04:31 437.345
YUBILEINY 26 Feb 18:57:07 19:03:26 21° 41° (NE) 19:09:42 435.215
NUDT-PHONESAT 26 Feb 19:00:39 19:03:22 19° 270° (W) 19:06:05 437.300
CUBEBUG 2 26 Feb 19:07:01 19:11:27 54° 68° (ENE) 19:16:01 437.445
AO-73 26 Feb 19:11:07 19:14:57 28° 60° (ENE) 19:18:50 145.935
AAUSAT CUBESAT 2 26 Feb 19:13:14 19:17:13 46° 67° (ENE) 19:21:12 437.432
LilacSat-2 26 Feb 19:13:42 19:15:32 13° 274° (W) 19:17:21 437.200
Oscar 11 26 Feb 19:16:11 19:19:49 26° 60° (ENE) 19:23:28 .
SEEDS 26 Feb 19:28:11 19:32:26 76° 256° (WSW) 19:36:41 437.485
HO-68 26 Feb 19:31:03 19:38:07 59° 257° (WSW) 19:45:14 435.675
PCSat 26 Feb 19:37:26 19:42:15 31° 340° (NNW) 19:47:05 145.827
UWE-3 26 Feb 19:41:09 19:45:41 71° 71° (ENE) 19:50:20 435.000/436.395/437.385
XW-2A 26 Feb 19:49:40 19:52:17 20° 268° (W) 19:54:54 145.665 - 145.685
STRAND 1 26 Feb 19:56:39 20:01:46 56° 101° (ESE) 20:06:49 437.568
ZACube-1 26 Feb 19:58:47 20:03:16 67° 71° (ENE) 20:07:52 437.345
CUTE 1.7 + AOD 2 26 Feb 20:10:29 20:14:02 25° 268° (W) 20:17:36 437.475
NO-84 26 Feb 20:15:01 20:18:38 81° 177° (S) 20:22:37 435.350 FM
M-CUBED/EXP-1 PRIME 26 Feb 20:16:45 20:19:08 17° 310° (NW) 20:21:37 437.505
STARS 26 Feb 20:22:57 20:23:07 10° 316° (NW) 20:23:16 437.465
DELFI C3 26 Feb 20:32:29 20:36:14 42° 67° (ENE) 20:39:59 145.870
CUBEBUG 2 26 Feb 20:44:32 20:48:22 27° 269° (W) 20:52:19 437.445
AO-73 26 Feb 20:46:31 20:50:57 55° 260° (W) 20:55:28 145.935
AAUSAT CUBESAT 2 26 Feb 20:49:22 20:52:54 26° 267° (W) 20:56:25 437.432
LO-87 26 Feb 20:49:45 20:51:12 12° 54° (NE) 20:52:40 145.935 - 145.965
Oscar 11 26 Feb 20:51:27 20:55:44 53° 260° (W) 21:00:02 .
RS-15 26 Feb 20:52:15 21:04:27 63° 339° (NNW) 21:16:47 29.354- 29.394
YUBILEINY 26 Feb 20:53:55 21:02:34 58° 69° (ENE) 21:11:07 435.215
PRISM 26 Feb 21:02:43 21:05:12 15° 88° (E) 21:07:39 437.425
SEEDS 26 Feb 21:07:12 21:08:53 12° 276° (W) 21:10:33 437.485
UWE-3 26 Feb 21:19:16 21:22:39 20° 272° (W) 21:26:08 435.000/436.395/437.385
PCSat 26 Feb 21:22:40 21:27:11 25° 6° (N) 21:31:42 145.827
HO-68 26 Feb 21:23:33 21:27:28 15° 280° (W) 21:31:23 435.675
ESTCUBE 1 26 Feb 21:29:30 21:32:57 22° 56° (NE) 21:36:23 437.505/2401.250
STRAND 1 26 Feb 21:36:11 21:40:44 32° 302° (WNW) 21:45:17 437.568
ZACube-1 26 Feb 21:36:32 21:40:01 21° 271° (W) 21:43:33 437.345
TIGRISAT 26 Feb 21:41:05 21:44:28 19° 88° (E) 21:47:50 435.000
UNISAT 6 26 Feb 21:41:13 21:44:44 20° 88° (E) 21:48:12 437.425
FO-29 26 Feb 21:44:47 21:50:22 21° 80° (E) 21:55:37 435.910
SPROUT 26 Feb 21:46:10 21:47:33 11° 47° (NE) 21:48:55 437.525
VELOX 1 26 Feb 21:49:06 21:51:31 15° 50° (NE) 21:53:56 145.980
O/OREOS (USA 219) 26 Feb 21:49:51 21:51:42 12° 97° (E) 21:53:34 437.305
NO-84 26 Feb 21:52:31 21:56:16 62° 197° (SSW) 22:00:21 435.350 FM
DELFI C3 26 Feb 22:07:49 22:11:12 26° 266° (W) 22:14:34 145.870
LO-87 26 Feb 22:20:32 22:24:04 80° 73° (ENE) 22:27:39 145.935 - 145.965
PRISM 26 Feb 22:36:56 22:41:02 80° 286° (WNW) 22:45:07 437.425
50 SAT 26 Feb 22:43:10 22:45:47 20° 60° (ENE) 22:48:24 437.505
SO-50 26 Feb 22:45:40 22:50:03 42° 127° (SE) 22:54:24 436.795
YUBILEINY 26 Feb 22:51:05 22:59:16 46° 274° (W) 23:07:23 435.215
ESTCUBE 1 26 Feb 23:04:50 23:09:20 73° 255° (WSW) 23:13:52 437.505/2401.250
PCSat 26 Feb 23:06:43 23:11:54 42° 31° (NNE) 23:17:03 145.827
RS-15 26 Feb 23:06:59 23:19:14 59° 12° (NNE) 23:31:19 29.354- 29.394
AIST 2D 26 Feb 23:08:56 23:11:34 19° 91° (E) 23:14:10 435.315
DX 1 26 Feb 23:09:32 23:13:19 31° 61° (ENE) 23:17:08 434.975-435.025
TIGRISAT 26 Feb 23:16:59 23:21:44 79° 287° (WNW) 23:26:25 435.000
UNISAT 6 26 Feb 23:17:14 23:21:58 74° 289° (WNW) 23:26:38 437.425
UKube-1 26 Feb 23:18:21 23:22:02 28° 60° (ENE) 23:25:44 .
SPROUT 26 Feb 23:18:26 23:22:35 52° 68° (ENE) 23:26:46 437.525
VELOX 1 26 Feb 23:22:53 23:27:14 70° 71° (ENE) 23:31:39 145.980
O/OREOS (USA 219) 26 Feb 23:25:48 23:30:16 70° 119° (ESE) 23:34:48 437.305
FO-29 26 Feb 23:28:58 23:36:49 73° 103° (ESE) 23:43:59 435.910
NO-84 26 Feb 23:30:19 23:33:35 25° 216° (SW) 23:37:01 435.350 FM
DUCHIFAT 1 26 Feb 23:43:12 23:46:45 24° 92° (E) 23:50:16 145.980
EO-79 26 Feb 23:55:47 23:59:47 35° 97° (E) 00:03:44 145.935-145.965
LO-87 26 Feb 23:56:31 23:58:03 12° 273° (W) 23:59:37 145.935 - 145.965
ITUPSAT 1 27 Feb 00:03:21 00:05:27 13° 44° (NE) 00:07:31 437.325
BEESAT 27 Feb 00:08:24 00:10:46 14° 46° (NE) 00:13:09 436.000
NANOSAT C BR1 27 Feb 00:11:37 00:15:45 45° 99° (E) 00:19:52 145.865
PRISM 27 Feb 00:13:24 00:15:43 15° 308° (NW) 00:18:01 437.425
POLYITAN 1 27 Feb 00:13:45 00:17:59 51° 100° (E) 00:22:11 437.675
50 SAT 27 Feb 00:15:16 00:18:40 49° 260° (W) 00:22:05 437.505
QB50P2 27 Feb 00:16:48 00:21:04 57° 102° (ESE) 00:25:18 145.880/145.840
SO-50 27 Feb 00:25:57 00:30:30 54° 328° (NNW) 00:35:00 436.795
BUGSAT 1 27 Feb 00:33:08 00:36:50 28° 94° (E) 00:40:33 437.445
AIST 2D 27 Feb 00:41:35 00:45:04 49° 290° (WNW) 00:48:31 435.315
ESTCUBE 1 27 Feb 00:45:02 00:46:59 12° 276° (W) 00:48:55 437.505/2401.250
DX 1 27 Feb 00:45:15 00:49:24 44° 261° (W) 00:53:35 434.975-435.025
PCSat 27 Feb 00:50:12 00:55:37 65° 234° (SW) 01:01:00 145.827
YUBILEINY 27 Feb 00:50:33 00:53:41 12° 299° (WNW) 00:56:49 435.215
UKube-1 27 Feb 00:53:43 00:57:54 48° 260° (W) 01:02:07 .
TIGRISAT 27 Feb 00:54:39 00:57:44 18° 308° (NW) 01:00:49 435.000
UNISAT 6 27 Feb 00:55:00 00:57:57 17° 309° (NW) 01:00:54 437.425
SPROUT 27 Feb 00:55:17 00:58:47 24° 268° (W) 01:02:20 437.525
VELOX 1 27 Feb 01:01:00 01:04:11 19° 270° (W) 01:07:24 145.980
Gurwin Techsat 1B 27 Feb 01:03:35 01:06:24 14° 83° (E) 01:09:11 435.225
O/OREOS (USA 219) 27 Feb 01:06:16 01:10:08 27° 320° (NW) 01:14:02 437.305
FO-29 27 Feb 01:14:19 01:21:21 39° 306° (NW) 01:27:58 435.910
DUCHIFAT 1 27 Feb 01:18:32 01:22:42 52° 292° (WNW) 01:26:51 145.980
RS-15 27 Feb 01:20:38 01:33:08 89° 42° (NE) 01:45:15 29.354- 29.394
EO-79 27 Feb 01:31:37 01:35:34 36° 296° (WNW) 01:39:30 145.935-145.965
ITUPSAT 1 27 Feb 01:37:37 01:42:17 50° 65° (ENE) 01:46:57 437.325
Oscar 19 27 Feb 01:42:39 01:47:31 41° 97° (E) 01:52:20 437.125/150
BEESAT 27 Feb 01:42:57 01:47:38 56° 67° (ENE) 01:52:21 436.000
NANOSAT C BR1 27 Feb 01:47:37 01:51:21 29° 299° (WNW) 01:55:04 145.865
MOZHAYETS 4 27 Feb 01:48:40 01:52:37 28° 59° (ENE) 01:56:35
POLYITAN 1 27 Feb 01:49:56 01:53:35 27° 300° (WNW) 01:57:12 437.675
QB50P2 27 Feb 01:53:06 01:56:35 25° 302° (WNW) 02:00:04 145.880/145.840
SO-50 27 Feb 02:07:47 02:11:48 28° 351° (N) 02:15:46 436.795
KKS-1 27 Feb 02:07:52 02:10:35 16° 51° (NE) 02:13:19 437.445
BUGSAT 1 27 Feb 02:08:19 02:12:22 44° 294° (WNW) 02:16:25 437.445
ITAMSAT 1 27 Feb 02:21:43 02:24:13 13° 83° (E) 02:26:41 435.822/435.867
PCSat 27 Feb 02:35:02 02:38:04 15° 255° (WSW) 02:41:06 145.827
AO-7 27 Feb 02:36:41 02:42:22 20° 83° (E) 02:48:00 .
STARS 27 Feb 02:36:58 02:39:29 15° 50° (NE) 02:42:02 437.465
Gurwin Techsat 1B 27 Feb 02:42:01 02:47:22 69° 104° (ESE) 02:52:41 435.225
O/OREOS (USA 219) 27 Feb 02:49:18 02:51:07 12° 345° (NNW) 02:52:56 437.305
CUBESAT XI-V 27 Feb 02:53:19 02:56:59 24° 57° (ENE) 03:00:40 437.345
DUCHIFAT 1 27 Feb 02:56:09 02:57:30 11° 313° (NW) 02:58:51 145.980
FO-29 27 Feb 03:00:02 03:04:23 16° 330° (NNW) 03:08:37 435.910
ITUPSAT 1 27 Feb 03:16:04 03:20:20 31° 266° (W) 03:24:38 437.325
BEESAT 27 Feb 03:21:38 03:25:43 28° 267° (W) 03:29:51 436.000
Oscar 19 27 Feb 03:22:05 03:26:54 42° 298° (WNW) 03:31:42 437.125/150
MOZHAYETS 4 27 Feb 03:25:00 03:29:34 55° 259° (W) 03:34:10
RS-15 27 Feb 03:33:34 03:44:34 41° 250° (WSW) 03:55:13 29.354- 29.394
KKS-1 27 Feb 03:42:04 03:46:29 78° 71° (ENE) 03:50:58 437.445
SO-50 27 Feb 03:49:15 03:53:22 32° 16° (NNE) 03:57:26 436.795
ITAMSAT 1 27 Feb 03:59:29 04:04:44 66° 104° (ESE) 04:09:56 435.822/435.867
M-CUBED/EXP-1 PRIME 27 Feb 04:00:36 04:03:46 50° 61° (ENE) 04:07:01 437.505
STARS 27 Feb 04:10:47 04:15:08 72° 71° (ENE) 04:19:33 437.465
Gurwin Techsat 1B 27 Feb 04:22:29 04:26:58 28° 305° (NW) 04:31:26 435.225
AO-7 27 Feb 04:28:30 04:36:51 68° 107° (ESE) 04:45:06 .
AO-85 27 Feb 04:28:42 04:32:34 31° 124° (SE) 04:36:15 145.980
CUBESAT XI-V 27 Feb 04:29:21 04:34:00 69° 257° (WSW) 04:38:39 437.345
O/OREOS (USA 219) 27 Feb 04:31:09 04:32:38 11° 11° (NNE) 04:34:08 437.305
Oscar 19 27 Feb 05:03:17 05:05:02 12° 320° (NW) 05:06:46 437.125/150
KKS-1 27 Feb 05:20:35 05:23:37 18° 271° (W) 05:26:40 437.445
CUTE-I 27 Feb 05:22:51 05:25:24 13° 82° (E) 05:27:56 437.470
SO-50 27 Feb 05:29:52 05:34:26 76° 38° (NE) 05:38:57 436.795
M-CUBED/EXP-1 PRIME 27 Feb 05:36:24 05:38:36 17° 262° (W) 05:40:49 437.505
ITAMSAT 1 27 Feb 05:39:25 05:43:53 29° 304° (NW) 05:48:20 435.822/435.867
STRAND 1 27 Feb 05:41:41 05:46:18 35° 59° (ENE) 05:50:57 437.568
STARS 27 Feb 05:48:52 05:52:00 19° 271° (W) 05:55:09 437.465
KAITUO 1B 27 Feb 05:50:54 05:53:09 15° 88° (E) 05:55:23 145.475/437.950
XW-2F 27 Feb 05:58:33 06:01:27 20° 91° (E) 06:04:19 145.980 - 146.000
XW-2D 27 Feb 06:04:17 06:07:26 24° 92° (E) 06:10:33 145.860 - 145.880
BEESAT 3 27 Feb 06:05:56 06:08:57 21° 119° (ESE) 06:12:01 437.485
AO-85 27 Feb 06:08:33 06:12:48 60° 323° (NW) 06:16:51 145.980
XW-2B 27 Feb 06:09:19 06:12:35 25° 93° (E) 06:15:48 145.730 - 145.750
O/OREOS (USA 219) 27 Feb 06:10:03 06:13:45 23° 36° (NE) 06:17:27 437.305
CUBESAT XI-V 27 Feb 06:10:24 06:12:16 12° 277° (W) 06:14:08 437.345
XW-2C 27 Feb 06:17:56 06:21:24 31° 95° (E) 06:24:49 145.795 - 145.815
AO-7 27 Feb 06:21:37 06:29:22 45° 310° (NW) 06:37:05 .
NUDT-PHONESAT 27 Feb 06:22:38 06:25:58 28° 95° (E) 06:29:16 437.300
FO-29 27 Feb 06:25:14 06:28:14 13° 21° (NNE) 06:31:14 435.910
DOVE 4 27 Feb 06:26:25 06:30:54 45° 99° (E) 06:35:37 437.250
LilacSat-2 27 Feb 06:36:48 06:40:35 48° 99° (E) 06:44:18 437.200
BEESAT 2 27 Feb 06:48:25 06:51:39 24° 121° (ESE) 06:54:56 435.950
HO-68 27 Feb 06:50:50 06:56:01 21° 85° (E) 07:01:10 435.675
CUTE-I 27 Feb 07:01:10 07:06:33 64° 103° (ESE) 07:11:54 437.470
XW-2A 27 Feb 07:03:53 07:06:18 17° 91° (E) 07:08:42 145.665 - 145.685
SEEDS 27 Feb 07:06:12 07:07:44 12° 84° (E) 07:09:16 437.485
SO-50 27 Feb 07:10:49 07:14:32 25° 240° (WSW) 07:18:13 436.795
UNISAT 6 27 Feb 07:14:59 07:15:28 10° 43° (NE) 07:15:57 437.425
STRAND 1 27 Feb 07:20:20 07:25:21 52° 260° (W) 07:30:25 437.568
KAITUO 1B 27 Feb 07:23:52 07:27:40 72° 288° (WNW) 07:31:25 145.475/437.950
UWE-3 27 Feb 07:26:07 07:26:38 10° 80° (E) 07:27:09 435.000/436.395/437.385
XW-2F 27 Feb 07:32:09 07:35:55 53° 290° (WNW) 07:39:37 145.980 - 146.000
XW-2D 27 Feb 07:38:09 07:41:51 44° 292° (WNW) 07:45:29 145.860 - 145.880
BEESAT 3 27 Feb 07:42:12 07:46:10 77° 321° (NW) 07:50:11 437.485
XW-2B 27 Feb 07:43:18 07:46:56 41° 293° (WNW) 07:50:32 145.730 - 145.750
CUTE 1.7 + AOD 2 27 Feb 07:46:49 07:50:45 36° 96° (E) 07:54:38 437.475
O/OREOS (USA 219) 27 Feb 07:49:12 07:53:48 90° 62° (ENE) 07:58:24 437.305
AO-85 27 Feb 07:50:23 07:53:53 25° 347° (NNW) 07:57:16 145.980
XW-2C 27 Feb 07:52:08 07:55:39 34° 295° (WNW) 07:59:07 145.795 - 145.815
NUDT-PHONESAT 27 Feb 07:56:29 07:59:59 36° 294° (WNW) 08:03:26 437.300
PRISM 27 Feb 07:58:34 08:02:08 30° 62° (ENE) 08:05:43 437.425
DOVE 4 27 Feb 08:04:22 08:08:32 34° 297° (WNW) 08:12:55 437.250
FO-29 27 Feb 08:04:42 08:10:49 27° 45° (NE) 08:17:05 435.910
LilacSat-2 27 Feb 08:11:31 08:14:40 24° 299° (WNW) 08:17:46 437.200
YUBILEINY 27 Feb 08:14:19 08:18:05 14° 63° (ENE) 08:21:50 435.215
AO-7 27 Feb 08:14:37 08:20:17 21° 336° (NNW) 08:25:57 .
AAUSAT CUBESAT 2 27 Feb 08:23:10 08:26:51 30° 95° (E) 08:30:30 437.432
BEESAT 2 27 Feb 08:25:08 08:29:08 70° 322° (NW) 08:33:11 435.950
ISS 27 Feb 08:25:58 08:28:08 16° 150° (SSE) 08:30:19 437.550
CUBEBUG 2 27 Feb 08:26:33 08:31:09 45° 97° (E) 08:35:42 437.445
AO-73 27 Feb 08:27:25 08:30:48 20° 88° (E) 08:34:07 145.935
Oscar 11 27 Feb 08:31:38 08:34:41 18° 88° (E) 08:37:41 .
XW-2A 27 Feb 08:35:58 08:39:22 51° 290° (WNW) 08:42:45 145.665 - 145.685
HO-68 27 Feb 08:37:46 08:44:58 77° 107° (ESE) 08:52:08 435.675
SEEDS 27 Feb 08:40:00 08:44:13 76° 105° (ESE) 08:48:22 437.485
CUTE-I 27 Feb 08:41:39 08:46:18 30° 304° (NW) 08:50:56 437.470
Tancredo 1 27 Feb 08:45:53 08:48:22 20° 154° (SSE) 08:50:52 437.200
TIGRISAT 27 Feb 08:46:25 08:50:40 38° 63° (ENE) 08:55:00 435.000
UNISAT 6 27 Feb 08:46:44 08:51:02 40° 64° (ENE) 08:55:25 437.425
KAITUO 1B 27 Feb 08:59:28 09:01:02 12° 308° (NW) 09:02:37 145.475/437.950
UWE-3 27 Feb 08:59:29 09:04:08 57° 100° (E) 09:08:42 435.000/436.395/437.385
DUCHIFAT 1 27 Feb 09:10:36 09:11:04 10° 46° (NE) 09:11:33 145.980
ZACube-1 27 Feb 09:15:43 09:20:13 52° 99° (E) 09:24:38 437.345
BEESAT 3 27 Feb 09:20:52 09:24:19 27° 342° (NNW) 09:27:50 437.485
EO-79 27 Feb 09:21:58 09:24:10 14° 50° (NE) 09:26:23 145.935-145.965
CUTE 1.7 + AOD 2 27 Feb 09:22:44 09:26:36 35° 296° (WNW) 09:30:26 437.475
O/OREOS (USA 219) 27 Feb 09:29:40 09:32:35 17° 259° (W) 09:35:31 437.305
AO-85 27 Feb 09:32:00 09:35:22 25° 11° (NNE) 09:38:40 145.980
PRISM 27 Feb 09:33:31 09:37:22 39° 261° (W) 09:41:13 437.425
NANOSAT C BR1 27 Feb 09:36:55 09:39:37 17° 53° (NE) 09:42:21 145.865
DELFI C3 27 Feb 09:36:56 09:40:12 24° 93° (E) 09:43:27 145.870
POLYITAN 1 27 Feb 09:39:15 09:42:11 19° 55° (NE) 09:45:10 437.675
QB50P2 27 Feb 09:42:06 09:45:13 20° 56° (NE) 09:48:21 145.880/145.840
FO-29 27 Feb 09:47:16 09:54:44 74° 68° (ENE) 10:02:37 435.910
AIST 2D 27 Feb 09:50:26 09:53:20 24° 62° (ENE) 09:56:15 435.315
BUGSAT 1 27 Feb 09:58:04 09:59:09 11° 47° (NE) 10:00:13 437.445
AAUSAT CUBESAT 2 27 Feb 09:58:34 10:02:25 39° 294° (WNW) 10:06:14 437.432
ISS 27 Feb 10:00:57 10:04:01 35° 169° (S) 10:07:05 437.550
AO-73 27 Feb 10:02:57 10:07:32 71° 289° (WNW) 10:12:00 145.935
CUBEBUG 2 27 Feb 10:03:22 10:07:41 35° 298° (WNW) 10:11:59 437.445
BEESAT 2 27 Feb 10:04:02 10:07:30 27° 344° (NNW) 10:11:00 435.950
YUBILEINY 27 Feb 10:04:19 10:12:38 49° 88° (E) 10:20:56 435.215
AO-7 27 Feb 10:05:44 10:10:11 16° 3° (N) 10:14:37 .
Oscar 11 27 Feb 10:06:58 10:11:19 73° 289° (WNW) 10:15:37 .
SEEDS 27 Feb 10:16:30 10:19:27 19° 304° (NW) 10:22:25 437.485
Tancredo 1 27 Feb 10:21:05 10:24:09 38° 174° (S) 10:27:12 437.200
TIGRISAT 27 Feb 10:23:06 10:27:22 38° 264° (W) 10:31:46 435.000
UNISAT 6 27 Feb 10:23:34 10:27:48 36° 264° (W) 10:32:09 437.425
HO-68 27 Feb 10:25:56 10:32:15 35° 310° (NW) 10:38:32 435.675
UWE-3 27 Feb 10:36:21 10:40:20 28° 301° (WNW) 10:44:16 435.000/436.395/437.385
DUCHIFAT 1 27 Feb 10:41:44 10:45:46 46° 67° (ENE) 10:49:52 145.980
ESTCUBE 1 27 Feb 10:50:45 10:53:20 15° 86° (E) 10:55:54 437.505/2401.250
ZACube-1 27 Feb 10:52:20 10:56:18 29° 300° (WNW) 11:00:12 437.345
EO-79 27 Feb 10:55:00 10:59:12 69° 72° (ENE) 11:03:29 145.935-145.965
Gurwin Techsat 1B 27 Feb 10:55:16 10:57:35 13° 41° (NE) 10:59:55 435.225
BEESAT 3 27 Feb 10:59:46 11:03:00 23° 6° (N) 11:06:14 437.485
NANOSAT C BR1 27 Feb 11:10:32 11:14:47 87° 70° (ENE) 11:19:04 145.865
DELFI C3 27 Feb 11:11:26 11:15:12 45° 292° (WNW) 11:18:57 145.870
AO-85 27 Feb 11:12:33 11:16:29 56° 35° (NE) 11:20:21 145.980
POLYITAN 1 27 Feb 11:13:12 11:17:29 83° 255° (WSW) 11:21:48 437.675
LO-87 27 Feb 11:13:41 11:17:01 34° 97° (E) 11:20:21 145.935 - 145.965
QB50P2 27 Feb 11:16:19 11:20:34 75° 255° (WSW) 11:24:53 145.880/145.840
AIST 2D 27 Feb 11:23:00 11:26:24 41° 262° (W) 11:29:51 435.315
Oscar 19 27 Feb 11:28:59 11:33:14 27° 55° (NE) 11:37:29 437.125/150
BUGSAT 1 27 Feb 11:29:38 11:33:37 52° 68° (ENE) 11:37:41 437.445
FO-29 27 Feb 11:33:36 11:40:21 36° 270° (W) 11:47:30 435.910
ISS 27 Feb 11:37:01 11:40:07 37° 189° (S) 11:43:11 437.550
AO-73 27 Feb 11:40:21 11:43:01 16° 309° (NW) 11:45:40 145.935
BEESAT 2 27 Feb 11:43:04 11:46:22 23° 7° (N) 11:49:40 435.950
Oscar 11 27 Feb 11:44:21 11:46:46 15° 309° (NW) 11:49:10 .
AO-7 27 Feb 11:54:02 12:00:12 24° 30° (NNE) 12:06:21 .
Tancredo 1 27 Feb 11:57:04 12:00:02 32° 194° (SSW) 12:02:59 437.200
YUBILEINY 27 Feb 12:00:48 12:09:26 56° 292° (WNW) 12:18:04 435.215
ITAMSAT 1 27 Feb 12:10:41 12:12:44 12° 40° (NE) 12:14:47 435.822/435.867
HO-68 27 Feb 12:14:29 12:18:05 15° 334° (NNW) 12:21:39 435.675
DUCHIFAT 1 27 Feb 12:18:02 12:21:39 27° 266° (W) 12:25:20 145.980
DX 1 27 Feb 12:26:07 12:29:17 19° 90° (E) 12:32:26 434.975-435.025
